Waarnemingen

Advertentie
Mijn weer
St-Girons, Frankrijk (7627): temperatuur & dauwpunt: 16.11.2017 08:00:00 - 22.11.2017 08:00:00 (CET)St-Girons, Frankrijk (7627): temperatuur 5cm: 16.11.2017 08:00:00 - 22.11.2017 08:00:00 (CET)St-Girons, Frankrijk (7627): temperatuur -20cm & temperatuur -100cm: 16.11.2017 08:00:00 - 22.11.2017 08:00:00 (CET)St-Girons, Frankrijk (7627): windsnelheid & windstoten: 16.11.2017 08:00:00 - 22.11.2017 08:00:00 (CET)St-Girons, Frankrijk (7627): windrichting: 16.11.2017 08:00:00 - 22.11.2017 08:00:00 (CET)St-Girons, Frankrijk (7627): luchtdruk: 16.11.2017 08:00:00 - 22.11.2017 08:00:00 (CET)St-Girons, Frankrijk (7627): zicht: 16.11.2017 08:00:00 - 22.11.2017 08:00:00 (CET)St-Girons, Frankrijk (7627): Zonneschijnduur: 16.11.2017 08:00:00 - 22.11.2017 08:00:00 (CET)St-Girons, Frankrijk (7627): neerslag: 16.11.2017 08:00:00 - 22.11.2017 08:00:00 (CET)
Datum & Tijd tt [°C] td [°C] tt 5cm [°C] tt -20cm [°C] tt -100cm [°C] ff [km/u] ff [kn] fx [km/u] fx [kn] dd ppp [hPa] vv [km] sd [min] rr [mm]
22.11.2017 08:00:00 3,7 -3,1 -0,8 9,5 12,7 7 4 23 12 Z 1015,7 20 0 0,0
22.11.2017 07:00:00 3,4 -2,6 -3,4 9,6 12,7 6 4 13 7 Z 1016,1 20 0 0,0
22.11.2017 06:00:00 2,3 -0,8 -3,6 9,6 12,7 0 0 10 5 N 1017,0 20 0 0,0
22.11.2017 05:00:00 1,3 -1,9 -3,1 9,7 12,7 0 0 9 5 N 1017,7 20 0 0,0
22.11.2017 04:00:00 2,0 -1,3 -3,3 9,7 12,7 5 3 7 4 ZZO 1018,1 20 0 0,0
22.11.2017 03:00:00 2,3 -1,9 -2,8 9,8 12,7 5 3 10 5 Z 1018,8 20 0 0,0
22.11.2017 02:00:00 2,8 1,3 -2,3 9,7 12,7 2 1 8 5 ZW 1019,0 20 0 0,0
22.11.2017 01:00:00 2,9 0,9 -1,8 9,8 12,7 0 0 9 5 N 1019,4 20 0 0,0
22.11.2017 00:00:00 3,6 1,0 -1,0 9,8 12,7 4 2 8 4 ZZW 1019,4 20 0 0,0
21.11.2017 23:00:00 3,1 0,8 -0,6 9,8 12,7 3 2 13 7 WNW 1019,5 20 0 0,0
21.11.2017 22:00:00 7,5 0,5 1,2 9,8 12,7 8 4 20 11 ZO 1019,1 20 0 0,0
21.11.2017 21:00:00 7,0 1,3 2,5 9,8 12,7 3 2 21 11 Z 1019,7 20 0 0,0
21.11.2017 20:00:00 7,5 2,4 4,1 9,7 12,7 7 4 20 11 Z 1020,0 20 0 0,0
21.11.2017 19:00:00 9,5 2,3 4,0 9,7 12,7 10 5 14 8 ZO 1019,9 20 0 0,0
21.11.2017 18:00:00 9,4 3,8 5,5 9,6 12,7 4 2 10 6 ZZO 1019,9 20 0 0,0
21.11.2017 17:00:00 12,4 3,6 9,0 9,4 12,7 6 3 8 4 W 1019,5 20 41 0,0
21.11.2017 16:00:00 19,3 3,0 22,3 9,4 12,7 3 1 8 4 W 1018,3 20 60 0,0
21.11.2017 15:00:00 19,2 1,2 24,5 9,3 12,7 2 1 7 4 NW 1018,5 18 60 0,0
21.11.2017 14:00:00 19,5 1,9 25,0 9,3 12,8 3 2 9 5 Z 1019,2 20 60 0,0
21.11.2017 13:00:00 18,2 1,2 20,7 9,3 12,8 0 0 9 5 N 1020,4 20 60 0,0
21.11.2017 12:00:00 15,5 2,3 17,5 9,4 12,8 7 4 10 6 ZZO 1021,8 20 60 0,0
21.11.2017 11:00:00 12,8 3,7 14,7 9,4 12,8 5 3 13 7 OZO 1022,6 20 60 0,0
21.11.2017 10:00:00 8,2 3,8 6,6 9,5 12,8 0 0 3 2 N 1023,3 20 60 0,0
21.11.2017 09:00:00 4,6 2,6 -2,0 9,5 12,8 0 0 6 3 N 1023,5 20 41 0,0
21.11.2017 08:00:00 1,1 -0,1 -3,0 9,5 12,8 0 0 6 3 N 1023,8 20 0 0,0
21.11.2017 07:00:00 0,6 -0,1 -2,9 9,6 12,8 3 2 5 3 WNW 1023,8 20 0 0,0
21.11.2017 06:00:00 1,3 0,9 -2,9 9,6 12,8 2 1 9 5 WNW 1023,7 20 0 0,0
21.11.2017 05:00:00 2,5 1,0 -2,8 9,7 12,8 2 1 4 2 ZZO 1023,6 20 0 0,0
21.11.2017 04:00:00 2,2 2,1 -2,8 9,7 12,8 3 1 4 2 W 1023,6 20 0 0,0
21.11.2017 03:00:00 2,0 1,1 -2,3 9,8 12,8 0 0 6 3 N 1023,9 20 0 0,0
21.11.2017 02:00:00 2,1 0,9 -2,1 9,8 12,8 0 0 6 3 N 1024,1 20 0 0,0
21.11.2017 01:00:00 1,9 0,7 -1,8 9,8 12,9 2 1 12 6 ZW 1024,0 20 0 0,0
21.11.2017 00:00:00 2,0 0,7 -1,8 9,8 12,9 3 2 10 5 Z 1024,3 18 0 0,0
20.11.2017 23:00:00 2,8 1,5 -1,6 9,8 12,9 0 0 7 4 N 1024,2 20 0 0,0
20.11.2017 22:00:00 4,5 2,5 -0,8 9,8 12,9 4 2 10 5 Z 1024,2 20 0 0,0
20.11.2017 21:00:00 3,9 2,1 0,0 9,8 12,9 0 0 5 3 N 1024,3 20 0 0,0
20.11.2017 20:00:00 6,7 3,5 2,0 9,7 12,9 2 1 13 7 ZZW 1023,9 20 0 0,0
20.11.2017 19:00:00 8,5 3,5 4,4 9,7 12,9 10 5 15 8 ZO 1023,2 20 0 0,0
20.11.2017 18:00:00 8,0 4,6 3,9 9,6 12,9 7 4 9 5 ZZO 1023,2 20 2 0,0
20.11.2017 17:00:00 12,7 5,8 9,7 9,5 12,9 2 1 9 5 NNW 1022,2 20 43 0,0
20.11.2017 16:00:00 15,7 4,4 18,5 9,5 12,9 0 0 9 5 N 1021,8 20 56 0,0
20.11.2017 15:00:00 16,1 4,2 22,9 9,4 12,9 6 3 9 5 NO 1021,9 20 60 0,0
20.11.2017 14:00:00 17,4 1,4 21,8 9,4 12,9 0 0 9 5 N 1022,2 20 60 0,0
20.11.2017 13:00:00 15,5 2,6 18,6 9,4 12,9 4 2 11 6 OZO 1023,4 20 60 0,0
20.11.2017 12:00:00 12,6 1,3 14,5 9,4 12,9 8 4 16 9 ZO 1024,4 20 60 0,0
20.11.2017 11:00:00 9,7 -0,2 9,9 9,5 12,9 8 4 20 11 ZO 1025,5 20 60 0,0
20.11.2017 10:00:00 6,4 -0,6 5,4 9,5 13,0 15 8 27 15 ZO 1026,2 20 60 0,0
20.11.2017 09:00:00 3,4 -1,6 -0,5 9,6 12,9 15 8 24 13 ZO 1026,8 20 34 0,0
20.11.2017 08:00:00 2,1 -2,1 -1,3 9,6 13,0 8 4 18 10 OZO 1026,8 20 0 0,0
20.11.2017 07:00:00 2,3 -2,0 0,6 9,6 12,9 7 4 22 12 OZO 1026,4 20 0 0,0
20.11.2017 06:00:00 2,9 -1,8 0,5 9,7 13,0 8 4 19 10 ZO 1026,2 20 0 0,0
20.11.2017 05:00:00 2,5 -1,7 -2,1 9,7 13,0 11 6 24 13 ZO 1026,3 20 0 0,0
20.11.2017 04:00:00 0,3 -3,1 -4,1 9,8 13,0 6 4 21 11 ZO 1027,0 20 0 0,0
20.11.2017 03:00:00 -0,4 -1,5 -4,2 9,8 13,0 5 3 12 6 ZZO 1027,8 20 0 0,0
20.11.2017 02:00:00 -1,3 -2,4 -4,0 9,9 13,0 0 0 8 4 N 1028,3 20 0 0,0
20.11.2017 01:00:00 0,7 -1,7 -2,1 9,9 13,0 2 1 16 8 ZZO 1028,4 20 0 0,0
20.11.2017 00:00:00 0,2 -0,4 -3,0 9,9 13,0 5 3 11 6 ZW 1028,6 18 0 0,0
19.11.2017 23:00:00 1,8 -0,3 -3,0 10,0 13,0 7 4 14 8 ZO 1028,3 20 0 0,0
19.11.2017 22:00:00 2,1 1,4 -2,9 10,0 13,0 0 0 6 4 N 1028,0 20 0 0,0
19.11.2017 21:00:00 1,8 0,3 -1,8 10,0 13,0 0 0 9 5 N 1027,8 20 0 0,0
19.11.2017 20:00:00 2,7 0,8 -1,6 10,0 13,1 3 1 7 4 ZO 1027,8 20 0 0,0
19.11.2017 19:00:00 4,1 1,3 0,6 9,9 13,0 6 4 10 5 ZZO 1027,1 20 0 0,0
19.11.2017 18:00:00 7,1 2,2 1,0 9,8 13,0 0 0 10 5 N 1025,8 20 0 0,0
19.11.2017 17:00:00 9,1 2,0 5,0 9,8 13,1 5 3 12 6 WZW 1024,8 20 42 0,0
19.11.2017 16:00:00 12,8 0,8 16,1 9,7 13,0 6 4 12 6 WNW 1024,1 20 60 0,0
19.11.2017 15:00:00 13,1 -0,9 19,8 9,7 13,1 4 2 11 6 NO 1024,1 20 60 0,0
19.11.2017 14:00:00 13,5 1,5 18,4 9,7 13,1 3 1 11 6 N 1024,9 20 60 0,0
19.11.2017 13:00:00 11,8 3,0 16,8 9,7 13,1 6 3 14 7 N 1025,5 20 60 0,0
19.11.2017 12:00:00 10,1 2,4 16,6 9,7 13,1 9 5 14 8 NNW 1025,9 20 60 0,0
19.11.2017 11:00:00 8,5 0,5 13,3 9,8 13,1 0 0 8 4 N 1026,4 20 60 0,0
19.11.2017 10:00:00 5,9 0,6 4,7 9,8 13,1 3 2 9 5 ZO 1026,8 20 60 0,0
19.11.2017 09:00:00 1,2 0,5 -4,5 9,9 13,1 4 2 8 4 ZZO 1027,7 20 34 0,0
19.11.2017 08:00:00 -1,9 -2,2 -5,2 9,9 13,1 5 3 8 4 NNW 1027,5 17 0 0,0
19.11.2017 07:00:00 -0,4 -0,5 -5,1 10,0 13,1 0 0 4 2 N 1027,0 11 0 0,0
19.11.2017 06:00:00 -1,1 -1,8 -4,6 10,0 13,2 3 1 10 5 Z 1026,9 3,8 0 0,0
19.11.2017 05:00:00 0,7 0,4 -3,9 10,0 13,1 3 2 6 3 ZO 1026,7 15 0 0,0
19.11.2017 04:00:00 1,3 0,7 -3,4 10,1 13,2 2 1 5 3 O 1026,2 18 0 0,0
19.11.2017 03:00:00 1,9 1,5 -2,4 10,1 13,2 3 2 6 4 W 1026,0 4,0 0 0,0
19.11.2017 02:00:00 3,2 2,0 -0,1 10,1 13,2 3 2 11 6 OZO 1025,5 20 0 0,0
19.11.2017 01:00:00 3,3 2,7 -0,9 10,1 13,2 0 0 7 4 N 1026,3 1,7 0 0,0
19.11.2017 00:00:00 5,7 4,3 1,0 10,1 13,2 0 0 5 3 N 1025,7 8 0 0,0
18.11.2017 23:00:00 6,8 4,9 5,5 10,1 13,2 4 2 10 5 W 1025,4 17 0 0,0
18.11.2017 22:00:00 7,2 5,5 6,3 10,0 13,2 0 0 5 3 N 1025,6 14 0 0,0
18.11.2017 21:00:00 7,6 5,7 7,0 10,0 13,2 0 0 8 4 N 1025,2 19 0 0,0
18.11.2017 20:00:00 7,8 5,8 6,0 10,0 13,2 4 2 8 4 O 1025,2 17 0 0,0
18.11.2017 19:00:00 6,9 5,2 2,4 9,9 13,2 6 3 8 4 WNW 1025,4 20 0 0,0
18.11.2017 18:00:00 7,9 5,9 2,8 9,9 13,3 3 2 10 5 W 1024,9 20 0 0,0
18.11.2017 17:00:00 10,4 6,0 8,8 9,8 13,2 7 4 14 7 NNW 1023,9 20 0 0,0
18.11.2017 16:00:00 11,9 6,8 12,6 9,7 13,3 8 4 20 11 NW 1023,2 20 27 0,0
18.11.2017 15:00:00 12,5 6,3 16,2 9,6 13,3 8 5 24 13 N 1023,0 20 55 0,0
18.11.2017 14:00:00 12,9 5,3 17,3 9,7 13,3 12 6 22 12 NW 1023,3 20 60 0,0
18.11.2017 13:00:00 12,3 5,5 17,7 9,6 13,3 12 6 18 10 NNW 1023,5 20 60 0,0
18.11.2017 12:00:00 11,9 4,6 17,7 9,6 13,3 2 1 9 5 N 1024,4 20 60 0,0
18.11.2017 11:00:00 10,4 3,0 12,6 9,7 13,3 0 0 5 3 N 1024,9 20 60 0,0
18.11.2017 10:00:00 5,2 3,2 4,2 9,8 13,3 3 2 8 4 W 1025,8 20 60 0,0
18.11.2017 09:00:00 1,8 1,5 -3,7 9,8 13,3 0 0 5 3 N 1026,0 20 35 0,0
18.11.2017 08:00:00 0,6 0,3 -3,6 9,8 13,3 2 1 6 3 W 1026,0 17 0 0,0
18.11.2017 07:00:00 0,9 0,6 -3,0 9,9 13,3 2 1 5 3 Z 1025,7 20 0 0,0
18.11.2017 06:00:00 1,0 0,6 -1,7 9,9 13,3 0 0 9 5 N 1025,6 19 0 0,0
18.11.2017 05:00:00 1,7 1,3 -1,5 10,0 13,3 5 3 6 4 ZZO 1025,7 20 0 0,0
18.11.2017 04:00:00 0,5 0,2 -2,3 10,0 13,3 3 2 4 2 NW 1025,8 13 0 0,0
18.11.2017 03:00:00 0,4 0,0 -3,3 10,0 13,3 0 0 5 3 N 1025,8 1,1 0 0,0
18.11.2017 02:00:00 1,8 1,4 -3,0 10,1 13,3 2 1 5 3 Z 1025,4 14 0 0,0
18.11.2017 01:00:00 1,4 1,0 -2,7 10,1 13,4 0 0 3 2 N 1025,4 6 0 0,0
18.11.2017 00:00:00 2,4 2,0 -2,4 10,1 13,4 0 0 4 2 N 1025,2 16 0 0,0
17.11.2017 23:00:00 2,9 2,3 -1,7 10,1 13,4 0 0 3 1 N 1025,4 20 0 0,0
17.11.2017 22:00:00 3,3 1,5 -1,4 10,1 13,4 0 0 5 3 N 1025,5 20 0 0,0
17.11.2017 21:00:00 3,7 1,6 -0,3 10,1 13,4 4 2 10 5 ZZW 1025,1 20 0 0,0
17.11.2017 20:00:00 5,3 2,1 0,9 10,1 13,4 3 2 9 5 ZZO 1025,0 20 0 0,0
17.11.2017 19:00:00 7,9 3,0 1,9 10,0 13,4 0 0 12 6 N 1024,0 20 0 0,0
17.11.2017 18:00:00 9,7 2,5 3,7 9,9 13,4 9 5 12 6 W 1022,9 20 0 0,0
17.11.2017 17:00:00 11,8 2,8 8,7 9,9 13,5 7 4 14 8 W 1022,1 20 33 0,0
17.11.2017 16:00:00 15,6 0,6 18,9 9,8 13,4 6 3 14 8 N 1021,3 20 60 0,0
17.11.2017 15:00:00 16,1 -0,2 19,7 9,8 13,5 9 5 18 10 NNW 1021,2 20 60 0,0
17.11.2017 14:00:00 15,8 -1,3 - - - 8 4 16 9 WNW 1021,6 20 - 0,0
17.11.2017 13:00:00 15,0 -2,0 21,1 9,7 13,5 7 4 12 7 NW 1022,2 20 60 0,0
17.11.2017 12:00:00 13,4 0,4 20,1 9,8 13,5 3 2 7 4 NO 1023,0 20 60 0,0
17.11.2017 11:00:00 10,4 2,5 16,5 9,8 13,5 2 1 5 3 W 1024,1 20 60 0,0
17.11.2017 10:00:00 7,5 2,6 6,1 9,8 13,5 0 0 3 2 N 1024,7 20 60 0,0
17.11.2017 09:00:00 1,9 0,6 -3,4 9,9 13,5 3 2 5 3 ZW 1025,9 20 35 0,0
17.11.2017 08:00:00 -0,5 -1,3 -4,2 10,0 13,5 0 0 6 4 N 1026,1 20 0 0,0
17.11.2017 07:00:00 -0,7 -1,8 -4,2 10,0 13,5 2 1 5 3 WZW 1025,8 20 0 0,0
17.11.2017 06:00:00 1,0 -1,2 -3,8 10,0 13,5 3 1 7 4 ZO 1025,5 20 0 0,0
17.11.2017 05:00:00 -0,5 -1,5 -3,7 10,1 13,6 5 3 8 4 WNW 1025,5 20 0 0,0
17.11.2017 04:00:00 0,6 -0,1 -3,3 10,1 13,6 4 2 7 4 ZW 1025,1 20 0 0,0
17.11.2017 03:00:00 1,0 0,4 -3,0 10,2 13,6 3 2 6 3 W 1025,2 20 0 0,0
17.11.2017 02:00:00 0,7 0,1 -3,0 10,2 13,6 0 0 4 2 N 1025,3 20 0 0,0
17.11.2017 01:00:00 1,1 0,7 -2,4 10,3 13,6 0 0 4 2 N 1025,6 20 0 0,0
17.11.2017 00:00:00 2,5 2,1 -2,7 10,3 13,6 0 0 5 3 N 1025,6 20 0 0,0
16.11.2017 23:00:00 2,0 0,5 -1,8 10,3 13,6 3 1 10 5 OZO 1025,7 20 0 0,0
16.11.2017 22:00:00 2,8 1,0 -1,4 10,3 13,6 2 1 8 5 ZZO 1025,6 20 0 0,0
16.11.2017 21:00:00 3,3 1,2 -0,8 10,3 13,6 0 0 5 3 N 1025,5 20 0 0,0
16.11.2017 20:00:00 4,4 1,6 0,4 10,2 13,6 3 2 11 6 Z 1024,7 20 0 0,0
16.11.2017 19:00:00 6,1 2,0 0,7 10,1 13,6 0 0 10 5 N 1024,1 20 0 0,0
16.11.2017 18:00:00 9,3 2,8 3,6 10,0 13,6 7 4 12 6 W 1022,9 20 7 0,0
16.11.2017 17:00:00 11,7 2,9 8,7 10,0 13,7 8 4 13 7 NW 1021,8 20 52 0,0
16.11.2017 16:00:00 14,3 1,5 14,6 10,0 13,7 8 4 16 9 NNW 1020,5 20 43 0,0
16.11.2017 15:00:00 15,6 0,9 18,7 9,9 13,7 8 4 19 11 NNW 1020,1 20 60 0,0
16.11.2017 14:00:00 14,8 1,0 18,5 9,9 13,7 14 8 22 12 NW 1020,5 20 60 0,0
16.11.2017 13:00:00 13,7 0,0 19,5 9,9 13,7 8 4 15 8 WNW 1021,0 20 60 0,0
16.11.2017 12:00:00 12,1 1,1 20,2 9,9 13,7 4 2 9 5 NNO 1021,9 20 60 0,0
16.11.2017 11:00:00 10,4 2,5 15,2 10,0 13,7 0 0 5 3 N 1022,6 20 60 0,0
16.11.2017 10:00:00 5,4 2,6 7,0 10,1 13,7 0 0 4 2 N 1023,3 20 60 0,0
16.11.2017 09:00:00 0,7 0,3 -5,4 10,1 13,7 3 2 5 3 ZZW 1023,8 20 40 0,0
16.11.2017 08:00:00 -2,3 -2,7 -5,8 10,2 13,7 0 0 5 3 N 1023,5 20 0 0,0

tt = temperatuur
td = dauwpunt
tt 5cm = temperatuur 5cm
tt -20cm = temperatuur -20cm
tt -100cm = temperatuur -100cm
ff = windsnelheid
fx = windstoten
dd = windrichting
ppp = luchtdruk
vv = zicht
sd = Zonneschijnduur
rr = neerslag

Weerstations in de omgeving